Location: Brienzwiler
(46.7508°N, 8.1014°E)
Time: 01:27:28
(UTC+00:00)

ATLAS CENTAUR R/B - Pass Details

Date: 05 July 2020
Orbit: 475 x 672 km, 64.7° (Epoch: 13 July)

Event Time Altitude Azimuth Distance (km) Brightness Sun altitude
Rises 21:51:53 0° 316° (NW) 2,562 6.1 -17.0°
Reaches altitude 10° 21:54:08 10° 309° (NW) 1,663 4.7 -17.1°
Maximum altitude 21:57:34 38° 240° (WSW) 744 1.9 -17.3°
Enters shadow 21:58:26 32° 206° (SSW) 833 1.9 -17.4°
